Location: Alfords
(31.4624°N, 83.9238°W)
Time: 14:30:28
(UTC+00:00)

N. Korean satellite - Pass Details

Date: 25 September 2021
Orbit: 450 x 495 km, 97.3° (Epoch: 19 October)

Event Time Altitude Azimuth Distance (km) Brightness Sun altitude
Rises 09:51:34 0° 35° (NE) 2,534 10.9 -20.8°
Reaches altitude 10° 09:54:27 10° 62° (ENE) 1,661 10.4 -20.2°
Maximum altitude 09:56:23 14° 95° (E) 1,435 9.9 -19.8°
Drops below altitude 10° 09:58:19 10° 128° (SE) 1,668 9.8 -19.4°
Sets 10:01:13 0° 154° (SSE) 2,552 10.4 -18.8°
